Weather observations for the past three days for
Tekamah, Tekamah Municipal Airport
Metric (Imperial)
Date Time (cdt) Wind (kph) Vis. (km) Weather Sky Cond. Temperature (ºC) Relative Humidity Wind Chill (°C) Heat Index (°C) Pressure Precipitation (cm)
Air Dwpt 6 hour altimeter (cm) sea level (mb) 1 hr 3 hr 6 hr
Max. Min.
06 21:54 SW 7 16.09 A Few Clouds FEW100 7.2 -7.8 34% 6 76.15 1015.2
06 20:54 SW 6 16.09 Fair CLR 11.1 -7.8 26% 76.15 1015.0
06 19:54 W 13 16.09 Fair CLR 14.4 -7.2 22% 76.15 1014.9
06 18:54 W 15 16.09 Mostly Cloudy BKN095 16.1 -7.8 16.7 12.8 19% 76.17 1015.4
06 17:54 W 24 G 35 16.09 A Few Clouds FEW100 16.1 -7.8 19% 76.2 1015.9
06 16:54 W 20 G 30 16.09 Partly Cloudy SCT095 15.6 -8.3 19% 76.23 1016.2
06 15:54 W 20 G 31 16.09 A Few Clouds FEW090 15 -8.3 19% 76.28 1016.9
06 14:54 NW 24 G 35 16.09 Partly Cloudy SCT090 14.4 -7.8 21% 76.33 1017.6
06 13:54 W 19 G 41 16.09 Mostly Cloudy BKN090 15 -6.7 22% 76.35 1017.8
06 12:54 NW 28 G 41 16.09 Mostly Cloudy BKN080 12.8 -6.7 13.9 1.1 25% 76.4 1018.6
06 11:54 NW 19 G 35 16.09 Mostly Cloudy BKN075 12.8 -6.1 26% 76.45 1019.2
06 10:54 W 13 G 33 16.09 A Few Clouds FEW070 11.7 -6.1 28% 76.43 1018.9
06 09:54 NW 20 G 33 16.09 Fair CLR 11.1 -5 32% 76.45 1019.2
06 08:54 NW 13 16.09 Fair CLR 8.3 -4.4 41% 6 76.45 1019.1
06 07:54 Calm 16.09 Fair CLR 5 -3.9 53% 76.43 1018.8
06 06:54 NW 6 16.09 Fair CLR 1.1 -5 4.4 -1.1 64% 76.35 1018.0
06 05:54 Calm 16.09 Fair CLR -0.6 -5.6 69% 76.33 1017.6
06 04:54 NW 7 16.09 Fair CLR 1.7 -5 61% -0 76.28 1017.0
06 03:54 NW 13 16.09 Fair CLR 2.2 -5 59% -1 76.28 1016.7
06 02:54 NW 13 16.09 Fair CLR 3.3 -4.4 57% 0 76.25 1016.5
06 01:54 NW 11 16.09 Fair CLR 4.4 -4.4 53% 2 76.23 1015.9
06 00:54 NW 13 16.09 Fair CLR 3.3 -5.6 12.8 3.3 52% 0 76.23 1016.0
05 23:54 N 7 16.09 Fair CLR 5 -5 49% 4 76.15 1015.1
05 22:54 NW 9 16.09 Fair CLR 6.7 -5.6 41% 5 76.15 1015.1
05 21:54 NW 11 16.09 Fair CLR 6.7 -6.1 40% 5 76.1 1014.4
05 20:54 N 13 16.09 Fair CLR 8.3 -6.1 36% 6 76.05 1013.6
05 19:54 N 22 16.09 Fair CLR 11.1 -6.7 28% 76 1013.0
05 18:54 NW 33 16.09 Fair and Breezy CLR 12.8 -6.1 16.1 12.8 26% 75.97 1012.7
05 17:54 NW 31 G 43 16.09 Fair CLR 13.3 -6.1 26% 75.95 1012.4
05 16:54 NW 35 G 48 16.09 Fair and Breezy CLR 14.4 -6.1 24% 75.95 1012.1
05 15:54 NW 35 G 48 16.09 A Few Clouds and Breezy FEW075 14.4 -5.6 25% 75.97 1012.5
05 14:54 N 20 G 39 16.09 Fair CLR 14.4 -5 26% 76 1012.8
05 13:54 NW 31 G 46 16.09 Fair CLR 14.4 -4.4 27% 76.02 1013.2
05 12:54 NW 24 16.09 Fair CLR 13.9 -5 14.4 6.1 27% 76.02 1013.2
05 11:54 NW 19 G 33 16.09 Fair CLR 13.3 -3.9 30% 76.05 1013.7
05 10:54 N 19 G 30 16.09 Fair CLR 12.8 -3.9 31% 76.02 1013.1
05 09:54 N 20 G 35 16.09 Fair CLR 11.7 -2.8 37% 76.02 1013.1
05 08:54 N 15 16.09 Fair CLR 9.4 -0.6 50% 7 76 1013.0
05 07:54 NW 19 16.09 Fair CLR 7.8 0 58% 5 75.92 1011.7
05 06:54 NW 9 16.09 Fair CLR 6.1 0 10 5.6 65% 4 75.82 1010.6
05 05:54 NW 13 16.09 Fair CLR 6.1 0 65% 4 75.82 1010.4
05 04:54 NW 11 16.09 Fair CLR 7.2 0 61% 5 75.79 1010.0
05 03:54 NW 15 16.09 Fair CLR 6.7 0.6 65% 4 75.74 1009.2
05 02:54 NW 15 16.09 Fair CLR 8.3 2.2 66% 6 75.72 1008.7
05 01:54 NW 9 16.09 Partly Cloudy SCT110 7.8 3.3 73% 6 75.69 1008.4
05 00:54 NW 9 16.09 Overcast FEW070 OVC100 10 5 17.2 9.4 71% 9 75.72 1008.6
04 23:54 NW 6 16.09 Mostly Cloudy BKN110 9.4 4.4 71% 75.69 1008.3
04 22:54 W 13 16.09 Overcast FEW080 OVC100 10 5 71% 8 75.74 1008.8
04 21:54 N 17 16.09 Light Rain SCT055 BKN085 BKN110 11.7 1.7 51% 75.67 1008.1
04 20:54 N 28 16.09 Mostly Cloudy BKN110 13.3 -0.6 39% 75.64 1007.6
04 19:54 N 35 16.09 Partly Cloudy and Breezy SCT110 14.4 0 38% 75.57 1006.9
04 18:54 N 39 G 59 16.09 Fair and Breezy CLR 17.2 -1.1 26.1 17.2 29% 75.51 1006.3
04 17:54 N 41 G 57 16.09 Fair and Breezy CLR 21.1 -0.6 23% 75.39 1004.4
04 16:54 N 44 G 57 16.09 Fair and Windy CLR 23.3 0 21% 75.34 1003.6
04 15:54 NW 30 G 46 16.09 Fair CLR 25 0.6 20% 25 75.29 1002.8
04 14:54 N 31 G 43 16.09 Fair CLR 25.6 1.7 21% 25 75.23 1002.1
04 13:54 N 30 G 52 16.09 Fair CLR 25.6 3.9 25% 25 75.21 1001.7
04 12:54 N 30 G 48 16.09 Fair CLR 25.6 6.1 26.7 7.2 29% 26 75.18 1001.3
04 11:54 NW 31 G 46 16.09 Fair CLR 26.1 4.4 25% 26 75.16 1001.2
04 10:54 W 33 16.09 Fair and Breezy CLR 25.6 3.9 25% 25 75.13 1000.6
04 09:54 W 26 16.09 Fair CLR 23.3 3.3 27% 75.13 1000.6
04 08:54 W 19 16.09 Fair CLR 20.6 3.3 32% 75.16 1000.9
04 07:54 Calm 16.09 Fair CLR 13.3 3.9 53% 75.21 1001.7
04 06:54 Calm 16.09 Fair CLR 8.3 3.3 10 6.7 71% 75.18 1001.7
04 05:54 SE 6 16.09 Mostly Cloudy BKN110 7.2 2.8 74% 75.18 1001.5
04 04:54 Calm 16.09 Fair CLR 7.8 2.2 68% 75.21 1001.9
04 03:54 SE 11 16.09 Fair CLR 7.2 1.7 68% 5 75.23 1002.3
04 02:54 SE 9 16.09 Fair CLR 7.8 1.7 66% 6 75.29 1003.0
04 01:54 S 11 16.09 Fair CLR 8.3 1.1 61% 7 75.36 1004.0
04 00:54 S 6 16.09 Fair CLR 10 1.1 23.9 10 54% 75.44 1004.9
03 23:54 S 11 16.09 Fair CLR 10.6 1.1 52% 75.49 1005.6
03 22:54 Calm 16.09 Fair CLR 12.8 1.1 45% 75.51 1006.0
Date Time (cdt) Wind (kph) Vis. (km) Weather Sky Cond. Air Dwpt Max. Min. Relative Humidity Wind Chill (°C) Heat Index (°C) altimeter (cm) sea level (mb) 1 hr 3 hr 6 hr
6 hour
Temperature (ºC) Pressure Precipitation (cm)